View from above orbital plane
|
View from above satellite
|
Ground track
|
The orbit data is extracted from the following two-line orbital elements,
1 00877U 64053B 21016.83252570 -.00000055 00000-0 14072-4 0 9991
2 00877 65.0782 65.4083 0079146 307.3515 52.0391 14.59414114992632
Epoch (UTC): | 16 January 2021 19:58:50 |
Eccentricity: | 0.0079146 |
inclination: | 65.0782° |
perigee height: | 639 km |
apogee height: | 751 km |
right ascension of ascending node: | 65.4083° |
argument of perigee: | 307.3515° |
revolutions per day: | 14.59414114 |
mean anomaly at epoch: | 52.0391° |
orbit number at epoch: | 99263 |
The dashed part of the orbit path shows where the satellite is in the earth's shadow,
|
|